EW7634 Skibby DK current weather conditions

sailwx.info

Wind from 300 at 4 knots gusting 10

Air temperature 11.7° C
Dewpoint 9.1° C

Last reported at 2020-Jul-11 04:01 UTC.
Time now 2020-Jul-11 04:50 UTC

Location: N 55°48' E 012°03'.
View on Google Maps.

See reports from other nearby stations

  
Tides and Currents Weather Stations Pressure Air Temp Water Temp Dewpoint Dewpoint Depression Visibility Wind Speed Wind Dir Waves Ship Positions
date/time (UTC)wind fromknots sea level pressurealtimeterstation pressurevisibilityair tempwater tempwave heightnotes
2020-Jul-11 04:01 300 4 gusting 10 11.7
2020-Jul-11 03:55 288 3 gusting 10 11.7
2020-Jul-11 03:50 294 3 gusting 10 12.2
2020-Jul-11 03:46 257 3 gusting 10 12.2
2020-Jul-11 03:40 273 2 gusting 10 12.2
2020-Jul-11 03:35 298 3 gusting 13 12.2
2020-Jul-11 03:30 301 4 gusting 13 12.2
2020-Jul-11 03:25 277 6 gusting 12 12.2
2020-Jul-11 03:20 286 4 gusting 12 12.2
2020-Jul-11 03:16 303 4 gusting 12 12.2
2020-Jul-11 03:10 269 3 gusting 11 12.2
2020-Jul-11 03:06 259 3 gusting 13 12.2
2020-Jul-11 03:00 300 4 gusting 13 12.2
2020-Jul-11 02:55 254 3 gusting 13 12.2
2020-Jul-11 02:50 296 4 gusting 13 12.2
2020-Jul-11 02:46 299 4 gusting 10 12.2
2020-Jul-11 02:40 288 2 gusting 8 12.2
2020-Jul-11 02:35 299 4 gusting 8 12.2
2020-Jul-11 02:30 263 5 gusting 14 12.2
2020-Jul-11 02:25 293 6 gusting 14 12.2
2020-Jul-11 02:20 290 6 gusting 13 12.2
2020-Jul-11 02:15 266 5 gusting 13 12.2
2020-Jul-11 02:10 286 9 gusting 13 12.2
2020-Jul-11 02:05 300 6 gusting 13 12.2
2020-Jul-11 02:00 313 6 gusting 13 12.2
2020-Jul-11 01:55 281 7 gusting 13 12.2
2020-Jul-11 01:50 296 5 gusting 13 12.2
2020-Jul-11 01:45 290 6 gusting 13 12.2
2020-Jul-11 01:40 313 6 gusting 13 12.2
2020-Jul-11 01:35 290 6 gusting 10 11.7
2020-Jul-11 01:31 286 3 gusting 13 12.2
2020-Jul-11 01:25 286 6 gusting 13 12.2
2020-Jul-11 01:15 298 2 gusting 8 12.2
2020-Jul-11 01:10 312 3 gusting 11 12.2
2020-Jul-11 01:00 225 3 gusting 14 12.2
2020-Jul-11 00:55 285 6 gusting 14 12.8
2020-Jul-11 00:45 305 6 gusting 14 12.8
2020-Jul-11 00:40 279 6 gusting 13 12.8
2020-Jul-11 00:30 287 5 gusting 13 12.8
2020-Jul-11 00:25 279 6 gusting 13 12.8
2020-Jul-11 00:20 305 4 gusting 12 12.8
2020-Jul-11 00:10 274 3 gusting 10 12.8
2020-Jul-11 00:05 286 4 gusting 13 12.8
2020-Jul-10 23:55 301 4 gusting 12 12.2
2020-Jul-10 23:50 304 3 gusting 12 12.2
2020-Jul-10 23:45 252 3 gusting 12 12.2
2020-Jul-10 23:40 289 5 gusting 12 12.2
2020-Jul-10 23:35 295 5 gusting 12 12.2
2020-Jul-10 23:30 288 6 gusting 13 12.2
2020-Jul-10 23:16 231 4 gusting 10 12.2
2020-Jul-10 23:11 304 5 gusting 10 12.2
2020-Jul-10 23:06 288 4 gusting 13 12.2
2020-Jul-10 23:01 285 6 gusting 13 12.2
2020-Jul-10 22:55 317 5 gusting 13 12.2
2020-Jul-10 22:51 308 3 gusting 13 12.2
2020-Jul-10 22:48 311 5 gusting 13 12.8
2020-Jul-10 22:40 294 6 gusting 17 12.8
2020-Jul-10 22:35 309 5 gusting 17 12.8
2020-Jul-10 22:31 304 6 gusting 14 12.8
2020-Jul-10 22:25 296 8 gusting 14 12.8
2020-Jul-10 22:20 275 8 gusting 14 12.8
2020-Jul-10 22:17 305 6 gusting 10 12.8
2020-Jul-10 22:10 292 6 gusting 15 12.8
2020-Jul-10 22:05 286 6 gusting 15 12.8
2020-Jul-10 22:01 286 6 gusting 14 12.8
2020-Jul-10 21:55 296 5 gusting 13 12.8
2020-Jul-10 21:50 304 6 gusting 13 12.8
2020-Jul-10 21:46 294 6 gusting 13 12.8
2020-Jul-10 21:40 300 5 gusting 12 12.8
2020-Jul-10 21:35 275 6 gusting 18 12.8
2020-Jul-10 21:31 288 7 gusting 18 12.8
2020-Jul-10 21:25 275 6 gusting 14 12.8
2020-Jul-10 21:20 290 5 gusting 11 12.8
2020-Jul-10 21:16 293 4 gusting 10 12.2
2020-Jul-10 21:10 235 3 gusting 9 12.2
2020-Jul-10 21:05 269 3 gusting 7 12.2
2020-Jul-10 21:01 265 2 gusting 10 12.2
2020-Jul-10 20:55 300 1 gusting 9 11.7
2020-Jul-10 20:50 249 1 gusting 9 11.7
2020-Jul-10 20:45 298 1 gusting 6 11.7
2020-Jul-10 20:40 281 1 gusting 5 11.7
2020-Jul-10 20:35 280 1 gusting 6 11.7
2020-Jul-10 20:31 256 0 gusting 6 11.7
2020-Jul-10 20:25 259 0 gusting 6 11.7
2020-Jul-10 20:20 276 0 gusting 5 11.7
2020-Jul-10 20:16 209 0 gusting 5 11.7
2020-Jul-10 20:10 244 0 gusting 4 11.7
2020-Jul-10 20:05 250 0 gusting 3 11.7
2020-Jul-10 20:00 248 0 gusting 4 12.2
2020-Jul-10 19:55 227 1 gusting 4 12.2
2020-Jul-10 19:50 260 0 gusting 3 12.2
2020-Jul-10 19:46 264 0 gusting 3 12.2
2020-Jul-10 19:40 257 0 gusting 3 12.2
2020-Jul-10 19:35 250 12.8
2020-Jul-10 19:30 257 12.8
2020-Jul-10 19:25 259 0 gusting 3 12.8
2020-Jul-10 19:20 256 0 gusting 4 13.3
2020-Jul-10 19:15 248 0 gusting 6 13.3
2020-Jul-10 19:10 267 1 gusting 6 13.3
2020-Jul-10 19:05 276 0 gusting 6 13.3
2020-Jul-10 19:00 251 13.3
2020-Jul-10 18:56 248 0 gusting 6 13.3
2020-Jul-10 18:50 297 3 gusting 8 13.3
2020-Jul-10 18:46 284 2 gusting 9 13.3
2020-Jul-10 18:40 230 3 gusting 9 13.9
2020-Jul-10 18:35 296 0 gusting 6 14.4
2020-Jul-10 18:30 211 0 gusting 3 14.4
2020-Jul-10 18:25 207 0 gusting 5 14.4
2020-Jul-10 18:20 200 0 gusting 5 14.4
2020-Jul-10 18:16 204 0 gusting 3 14.4
2020-Jul-10 18:10 201 0 gusting 2 14.4
2020-Jul-10 18:05 200 0 gusting 2 15.0
2020-Jul-10 18:00 198 15.0
2020-Jul-10 17:55 198 15.0
2020-Jul-10 17:50 198 14.4
2020-Jul-10 17:45 198 0 gusting 2 14.4
2020-Jul-10 17:40 198 15.0
2020-Jul-10 17:35 194 15.0
2020-Jul-10 17:30 194 1 gusting 6 15.0
2020-Jul-10 17:25 216 0 gusting 4 15.0
2020-Jul-10 17:20 209 15.6
2020-Jul-10 17:17 200 0 gusting 4 15.6
2020-Jul-10 17:10 265 15.6
2020-Jul-10 17:05 242 0 gusting 4 15.6
2020-Jul-10 17:00 257 0 gusting 5 15.6
2020-Jul-10 16:55 266 0 gusting 5 15.6
2020-Jul-10 16:50 200 0 gusting 4 16.1
2020-Jul-10 16:45 250 0 gusting 4 16.1
2020-Jul-10 16:40 247 0 gusting 2 16.1
2020-Jul-10 16:35 250 0 gusting 3 16.1
2020-Jul-10 16:30 247 0 gusting 3 15.6
2020-Jul-10 16:25 252 0 gusting 2 15.6
2020-Jul-10 16:20 254 0 gusting 3 15.0
2020-Jul-10 16:16 223 0 gusting 4 15.0
2020-Jul-10 16:10 244 0 gusting 4 15.0
2020-Jul-10 16:05 220 0 gusting 3 14.4
2020-Jul-10 16:01 246 14.4
2020-Jul-10 15:55 256 0 gusting 2 13.9
2020-Jul-10 15:50 253 13.3
2020-Jul-10 15:46 254 12.8
2020-Jul-10 15:40 254 12.8
2020-Jul-10 15:35 254 12.8
2020-Jul-10 15:31 254 0 gusting 2 12.2
2020-Jul-10 15:25 254 12.2
2020-Jul-10 15:20 257 0 gusting 3 12.2
2020-Jul-10 15:15 286 12.2
2020-Jul-10 15:10 288 1 gusting 4 12.2
2020-Jul-10 15:05 258 0 gusting 2 12.8
2020-Jul-10 15:00 257 12.2
2020-Jul-10 14:55 257 12.2
2020-Jul-10 14:50 265 12.2
2020-Jul-10 14:46 279 12.2
2020-Jul-10 14:40 279 12.2
2020-Jul-10 14:35 282 12.2
2020-Jul-10 14:30 289 12.2
2020-Jul-10 14:25 291 12.2
2020-Jul-10 14:20 291 12.2
2020-Jul-10 14:16 292 0 gusting 3 12.2
2020-Jul-10 14:10 292 1 gusting 3 12.2
2020-Jul-10 14:05 290 0 gusting 3 11.7
2020-Jul-10 14:00 290 1 gusting 5 11.7
2020-Jul-10 13:55 294 2 gusting 8 12.2
2020-Jul-10 13:50 321 4 gusting 8 12.2
2020-Jul-10 13:46 293 5 gusting 7 12.2
2020-Jul-10 13:40 269 1 gusting 7 12.2
2020-Jul-10 13:35 297 3 gusting 7 12.2
2020-Jul-10 13:30 295 2 gusting 6 12.2
2020-Jul-10 13:25 302 3 gusting 6 12.2
2020-Jul-10 13:20 298 3 gusting 6 12.2
2020-Jul-10 13:15 292 2 gusting 7 12.2
2020-Jul-10 13:10 306 5 gusting 7 12.8
2020-Jul-10 13:05 293 3 gusting 6 12.8
2020-Jul-10 13:00 270 0 gusting 4 13.3
2020-Jul-10 12:55 270 0 gusting 4 13.3
2020-Jul-10 12:50 242 0 gusting 2 13.9
2020-Jul-10 12:46 198 13.9
2020-Jul-10 12:40 197 13.9
2020-Jul-10 12:35 186 13.9
2020-Jul-10 12:30 186 13.9
2020-Jul-10 12:25 186 13.9
2020-Jul-10 12:20 186 13.9
2020-Jul-10 12:15 184 13.9
2020-Jul-10 12:10 178 0 gusting 2 13.9
2020-Jul-10 12:05 175 13.9
2020-Jul-10 12:00 175 13.9
2020-Jul-10 11:55 170 0 gusting 6 13.9
2020-Jul-10 11:50 150 1 gusting 5 13.9
2020-Jul-10 11:40 135 1 gusting 6 14.4
2020-Jul-10 11:30 156 1 gusting 5 15.0
2020-Jul-10 11:25 150 1 gusting 3 15.0
2020-Jul-10 11:20 192 0 gusting 3 15.6
2020-Jul-10 11:15 171 0 gusting 1 15.6
2020-Jul-10 11:10 167 15.6
2020-Jul-10 11:00 167 15.6
2020-Jul-10 10:55 178 15.6
2020-Jul-10 10:45 134 0 gusting 3 15.6
2020-Jul-10 10:40 189 0 gusting 3 15.6
2020-Jul-10 10:30 186 16.1
2020-Jul-10 10:25 186 0 gusting 2 16.1
2020-Jul-10 10:15 175 16.1
2020-Jul-10 10:10 177 0 gusting 2 16.1
2020-Jul-10 10:05 177 16.1
2020-Jul-10 10:00 178 0 gusting 2 16.1
2020-Jul-10 09:55 180 16.1
2020-Jul-10 09:50 180 16.1
2020-Jul-10 09:40 179 16.7
2020-Jul-10 09:35 179 16.7
2020-Jul-10 09:25 179 16.7
2020-Jul-10 09:20 179 16.7
2020-Jul-10 09:15 179 16.7
2020-Jul-10 09:10 179 16.7
2020-Jul-10 09:00 179 16.1
2020-Jul-10 08:50 179 16.7
2020-Jul-10 08:40 178 16.7
2020-Jul-10 08:35 176 16.7
2020-Jul-10 08:30 175 0 gusting 2 16.1
2020-Jul-10 08:25 175 0 gusting 2 16.1
2020-Jul-10 08:20 192 16.1
2020-Jul-10 08:10 134 0 gusting 3 16.1
2020-Jul-10 08:05 172 16.1
2020-Jul-10 08:00 174 0 gusting 4 16.1
2020-Jul-10 07:50 182 2 gusting 4 15.6
2020-Jul-10 07:41 182 0 gusting 4 15.0
2020-Jul-10 07:35 161 0 gusting 2 13.9
2020-Jul-10 07:31 164 0 gusting 1 13.9
2020-Jul-10 07:25 166 0 gusting 2 13.9
2020-Jul-10 07:20 150 0 gusting 2 13.9
2020-Jul-10 07:16 140 13.3
2020-Jul-10 07:11 136 13.3
2020-Jul-10 07:05 173 0 gusting 4 13.3
2020-Jul-10 07:01 186 0 gusting 4 13.3
2020-Jul-10 06:55 181 13.3
2020-Jul-10 06:50 183 13.3
2020-Jul-10 06:46 183 13.3
2020-Jul-10 06:40 182 1 gusting 3 13.3
2020-Jul-10 06:35 174 0 gusting 2 13.3
2020-Jul-10 06:31 172 0 gusting 2 13.3
2020-Jul-10 06:25 175 12.8
2020-Jul-10 06:20 178 12.8
2020-Jul-10 06:16 184 12.8
2020-Jul-10 06:10 182 12.8
2020-Jul-10 06:05 182 12.2
2020-Jul-10 06:01 167 12.2
2020-Jul-10 05:55 165 12.2
2020-Jul-10 05:51 165 12.2
2020-Jul-10 05:46 164 11.7
2020-Jul-10 05:40 137 11.7
2020-Jul-10 05:35 198 11.7
2020-Jul-10 05:31 198 11.1
2020-Jul-10 05:25 198 11.1
2020-Jul-10 05:20 198 10.6
2020-Jul-10 05:16 198 10.6
2020-Jul-10 05:10 198 10.0
2020-Jul-10 05:05 198 10.0
2020-Jul-10 05:00 198 9.4
2020-Jul-10 04:55 198 9.4
2020-Jul-10 04:50 198 9.4
2020-Jul-10 04:45 198 8.9
2020-Jul-10 04:40 198 8.3
2020-Jul-10 04:35 298 8.3
2020-Jul-10 04:31 300 8.3
2020-Jul-10 04:25 300 7.8
2020-Jul-10 04:20 300 7.8
2020-Jul-10 04:15 300 7.8
2020-Jul-10 04:10 300 7.8
2020-Jul-10 04:05 300 7.8
2020-Jul-10 04:00 300 7.2
2020-Jul-10 03:55 300 7.2
2020-Jul-10 03:50 300 7.2
2020-Jul-10 03:45 301 7.2
2020-Jul-10 03:40 301 7.2
2020-Jul-10 03:35 301 7.8
2020-Jul-10 03:30 301 7.8
2020-Jul-10 03:20 301 7.8
2020-Jul-10 03:10 301 7.8
2020-Jul-10 03:05 301 7.8
2020-Jul-10 03:00 301 7.8
2020-Jul-10 02:55 301 7.8
2020-Jul-10 02:50 301 7.8
2020-Jul-10 02:45 301 7.8
2020-Jul-10 02:40 301 7.8
2020-Jul-10 02:30 301 7.8
2020-Jul-10 02:25 301 7.8
2020-Jul-10 02:20 301 7.8
2020-Jul-10 02:15 301 7.8
2020-Jul-10 02:10 301 7.8
2020-Jul-10 02:05 301 8.3
2020-Jul-10 01:55 301 8.3
2020-Jul-10 01:50 301 8.3
2020-Jul-10 01:40 301 7.8
2020-Jul-10 01:35 301 7.8
2020-Jul-10 01:30 301 7.8
2020-Jul-10 01:25 301 7.8
2020-Jul-10 01:20 301 7.8
2020-Jul-10 01:10 301 7.8
2020-Jul-10 01:05 301 7.2
2020-Jul-10 01:00 301 7.2
2020-Jul-10 00:55 301 7.2
2020-Jul-10 00:50 301 7.8
2020-Jul-10 00:41 301 7.8
2020-Jul-10 00:35 301 7.8
2020-Jul-10 00:31 301 7.8
2020-Jul-10 00:26 301 7.8
2020-Jul-10 00:21 301 7.8
2020-Jul-10 00:17 301 7.8
2020-Jul-10 00:10 301 7.8
2020-Jul-10 00:06 301 7.8
2020-Jul-10 00:01 301 7.8
2020-Jul-09 23:55 301 7.8
2020-Jul-09 23:51 301 7.8
2020-Jul-09 23:46 301 7.8
2020-Jul-09 23:40 301 8.3
2020-Jul-09 23:35 301 8.3
2020-Jul-09 23:32 301 8.3
2020-Jul-09 23:25 301 8.3
2020-Jul-09 23:20 301 8.3
2020-Jul-09 23:16 301 8.3
2020-Jul-09 23:10 301 8.3
2020-Jul-09 23:05 301 8.3
2020-Jul-09 23:01 301 8.3
2020-Jul-09 22:55 301 8.9
2020-Jul-09 22:50 301 8.9
2020-Jul-09 22:47 301 8.9
2020-Jul-09 22:40 301 8.9
2020-Jul-09 22:35 301 8.9
2020-Jul-09 22:31 301 8.9
2020-Jul-09 22:25 301 8.9
2020-Jul-09 22:20 301 8.9
2020-Jul-09 22:16 301 9.4
2020-Jul-09 22:10 301 9.4
2020-Jul-09 22:05 301 9.4
2020-Jul-09 22:01 301 9.4
2020-Jul-09 21:55 301 9.4
2020-Jul-09 21:50 301 10.0
2020-Jul-09 21:46 301 10.0
2020-Jul-09 21:40 301 10.0
2020-Jul-09 21:35 301 10.6
2020-Jul-09 21:31 301 10.6
2020-Jul-09 21:25 301 10.6
2020-Jul-09 21:20 301 11.1
2020-Jul-09 21:15 301 11.1
2020-Jul-09 21:10 301 11.1
2020-Jul-09 21:05 301 11.7
2020-Jul-09 21:01 301 11.7
2020-Jul-09 20:55 301 11.7
2020-Jul-09 20:50 301 11.7
2020-Jul-09 20:45 301 12.2
2020-Jul-09 20:40 301 12.2
2020-Jul-09 20:35 301 12.2
2020-Jul-09 20:31 301 12.8
2020-Jul-09 20:25 302 12.8
2020-Jul-09 20:20 302 12.8
2020-Jul-09 20:15 302 12.8
2020-Jul-09 20:10 302 12.8
2020-Jul-09 20:05 302 13.3
2020-Jul-09 20:01 301 13.3
2020-Jul-09 19:55 301 13.3
2020-Jul-09 19:50 301 13.9
2020-Jul-09 19:45 301 13.9
2020-Jul-09 19:40 301 13.9
2020-Jul-09 19:35 301 13.9
2020-Jul-09 19:31 301 13.9
2020-Jul-09 19:25 301 0 gusting 1 14.4
2020-Jul-09 19:20 301 14.4
2020-Jul-09 19:15 301 0 gusting 2 14.4
2020-Jul-09 19:10 302 15.0
2020-Jul-09 19:05 302 1 gusting 3 15.0
2020-Jul-09 19:00 300 0 gusting 2 15.0
2020-Jul-09 18:55 300 0 gusting 2 15.0
2020-Jul-09 18:50 300 1 gusting 2 15.0
2020-Jul-09 18:45 300 0 gusting 2 15.0
2020-Jul-09 18:40 300 0 gusting 2 15.6
2020-Jul-09 18:35 300 0 gusting 1 15.6
2020-Jul-09 18:30 300 0 gusting 1 15.6
2020-Jul-09 18:25 300 0 gusting 2 15.6
2020-Jul-09 18:20 300 0 gusting 2 15.6
2020-Jul-09 18:16 300 0 gusting 2 15.6
2020-Jul-09 18:10 300 0 gusting 2 15.6
2020-Jul-09 18:05 300 0 gusting 2 15.6
2020-Jul-09 18:00 300 0 gusting 2 15.6
2020-Jul-09 17:55 300 0 gusting 3 16.1
2020-Jul-09 17:50 300 1 gusting 4 16.7
2020-Jul-09 17:45 300 1 gusting 4 17.2
2020-Jul-09 17:40 299 1 gusting 4 17.2
2020-Jul-09 17:35 300 1 gusting 4 17.2
2020-Jul-09 17:31 313 1 gusting 5 17.2
2020-Jul-09 17:25 318 2 gusting 5 17.2
2020-Jul-09 17:20 302 2 gusting 5 17.2
2020-Jul-09 17:15 289 2 gusting 4 17.2
2020-Jul-09 17:10 285 1 gusting 4 17.2
2020-Jul-09 17:05 284 1 gusting 5 17.2
2020-Jul-09 17:01 294 1 gusting 5 17.2
2020-Jul-09 16:55 290 1 gusting 5 17.2
2020-Jul-09 16:50 296 2 gusting 5 17.2
2020-Jul-09 16:45 316 2 gusting 5 17.2
2020-Jul-09 16:40 310 1 gusting 5 17.2
2020-Jul-09 16:35 320 2 gusting 4 17.8
2020-Jul-09 16:30 307 1 gusting 4 17.8
2020-Jul-09 16:25 333 0 gusting 2 17.8
2020-Jul-09 16:20 333 17.8
2020-Jul-09 16:15 335 0 gusting 2 18.3
2020-Jul-09 16:10 336 0 gusting 2 18.3
2020-Jul-09 16:05 334 0 gusting 2 18.3
2020-Jul-09 16:00 334 0 gusting 2 18.3
2020-Jul-09 15:55 326 0 gusting 2 18.3
2020-Jul-09 15:50 306 17.8
2020-Jul-09 15:45 307 17.8
2020-Jul-09 15:40 305 17.8
2020-Jul-09 15:35 305 0 gusting 2 17.8
2020-Jul-09 15:25 302 17.2
2020-Jul-09 15:20 302 17.2
2020-Jul-09 15:10 302 16.7
2020-Jul-09 15:05 302 16.7
2020-Jul-09 14:55 303 0 gusting 4 16.7
2020-Jul-09 14:45 320 2 gusting 5 16.7
2020-Jul-09 14:40 314 1 gusting 3 16.7
2020-Jul-09 14:35 315 0 gusting 2 16.7
2020-Jul-09 14:30 314 0 gusting 3 16.7
2020-Jul-09 14:25 314 1 gusting 6 16.1
2020-Jul-09 14:20 316 3 gusting 6 16.1
2020-Jul-09 14:10 302 2 gusting 5 16.7
2020-Jul-09 14:00 293 0 gusting 4 16.1
2020-Jul-09 13:55 294 0 gusting 6 16.1
2020-Jul-09 13:50 294 2 gusting 6 16.1
2020-Jul-09 13:40 317 2 gusting 7 16.1
2020-Jul-09 13:35 294 5 gusting 7 16.7
2020-Jul-09 13:30 290 0 gusting 3 16.1
2020-Jul-09 13:25 294 0 gusting 2 16.1
2020-Jul-09 13:20 294 16.1
2020-Jul-09 13:15 294 1 gusting 4 16.1
2020-Jul-09 13:10 287 1 gusting 6 16.1
2020-Jul-09 13:05 292 2 gusting 6 16.1
2020-Jul-09 13:00 287 1 gusting 6 16.1
2020-Jul-09 12:55 288 2 gusting 6 16.1
2020-Jul-09 12:47 310 0 gusting 5 16.1
2020-Jul-09 12:41 308 2 gusting 5 16.1
2020-Jul-09 12:36 283 16.7
2020-Jul-09 12:31 283 0 gusting 4 16.1
2020-Jul-09 12:26 287 1 gusting 4 16.1
2020-Jul-09 12:21 288 1 gusting 4 16.1
2020-Jul-09 12:16 259 0 gusting 2 15.6
2020-Jul-09 12:10 281 0 gusting 2 15.6
2020-Jul-09 12:05 284 15.6
2020-Jul-09 12:02 289 0 gusting 6 15.6
2020-Jul-09 11:55 282 0 gusting 3 16.1
2020-Jul-09 11:50 242 0 gusting 2 16.7
2020-Jul-09 11:47 261 0 gusting 2 16.7
2020-Jul-09 11:41 263 16.1
2020-Jul-09 11:36 275 1 gusting 3 15.6
2020-Jul-09 11:25 281 0 gusting 6 15.6
2020-Jul-09 11:20 271 1 gusting 6 15.6
2020-Jul-09 11:17 298 1 gusting 2 15.6
2020-Jul-09 11:11 307 15.6
2020-Jul-09 11:05 309 1 gusting 5 15.6
2020-Jul-09 11:01 324 2 gusting 5 15.6
2020-Jul-09 10:56 286 1 gusting 6 15.6
2020-Jul-09 10:51 289 0 gusting 3 16.1
2020-Jul-09 10:47 290 0 gusting 3 16.7
2020-Jul-09 10:40 259 0 gusting 3 16.7
2020-Jul-09 10:35 281 0 gusting 3 15.6
2020-Jul-09 10:32 281 0 gusting 4 15.0
2020-Jul-09 10:25 269 0 gusting 4 15.0
2020-Jul-09 10:20 296 1 gusting 4 15.0
2020-Jul-09 10:18 292 1 gusting 6 15.0
2020-Jul-09 10:10 287 1 gusting 4 15.0
2020-Jul-09 10:05 291 1 gusting 5 15.0
2020-Jul-09 10:01 302 2 gusting 7 15.0
2020-Jul-09 09:55 283 3 gusting 7 15.0
2020-Jul-09 09:51 288 2 gusting 5 15.0
2020-Jul-09 09:46 297 3 gusting 6 15.0
2020-Jul-09 09:40 296 3 gusting 6 15.6
2020-Jul-09 09:35 281 3 gusting 6 16.7
2020-Jul-09 09:30 284 1 gusting 5 17.2
2020-Jul-09 09:25 283 2 gusting 7 16.1
2020-Jul-09 09:20 294 1 gusting 7 16.1
2020-Jul-09 09:15 266 0 gusting 5 16.7
2020-Jul-09 09:11 305 1 gusting 6 16.1
2020-Jul-09 09:05 227 0 gusting 4 16.1
2020-Jul-09 09:02 302 1 gusting 4 15.6
2020-Jul-09 08:55 298 0 gusting 5 15.6
2020-Jul-09 08:50 236 0 gusting 5 15.6
2020-Jul-09 08:46 284 1 gusting 6 15.0
2020-Jul-09 08:41 258 0 gusting 6 15.0
2020-Jul-09 08:35 286 1 gusting 6 15.0
2020-Jul-09 08:30 231 0 gusting 6 15.6
2020-Jul-09 08:25 298 2 gusting 5 15.6
2020-Jul-09 08:20 292 0 gusting 8 15.6
2020-Jul-09 08:15 288 3 gusting 8 15.0
2020-Jul-09 08:10 290 2 gusting 7 16.1
2020-Jul-09 08:05 304 1 gusting 6 15.6
2020-Jul-09 08:01 242 1 gusting 7 15.6
2020-Jul-09 07:55 292 4 gusting 7 15.0
2020-Jul-09 07:50 283 0 gusting 8 14.4
2020-Jul-09 07:45 320 1 gusting 6 13.9
2020-Jul-09 07:40 285 2 gusting 6 15.0
2020-Jul-09 07:35 220 1 gusting 6 15.0
2020-Jul-09 07:31 275 1 gusting 7 14.4
2020-Jul-09 07:25 278 2 gusting 7 14.4
2020-Jul-09 07:20 239 1 gusting 7 15.0
2020-Jul-09 07:16 195 1 gusting 7 14.4
2020-Jul-09 07:10 286 1 gusting 6 13.9
2020-Jul-09 07:05 273 0 gusting 6 13.9
2020-Jul-09 07:00 275 1 gusting 7 14.4
2020-Jul-09 06:55 250 1 gusting 7 14.4
2020-Jul-09 06:50 265 0 gusting 6 13.9
2020-Jul-09 06:45 246 2 gusting 8 13.9
2020-Jul-09 06:40 251 1 gusting 8 13.9
2020-Jul-09 06:35 298 1 gusting 6 13.3
2020-Jul-09 06:30 250 1 gusting 6 13.3
2020-Jul-09 06:25 272 0 gusting 6 13.3
2020-Jul-09 06:20 240 1 gusting 7 12.8
2020-Jul-09 06:10 248 0 gusting 7 12.8
2020-Jul-09 06:05 148 1 gusting 6 12.8
2020-Jul-09 05:55 263 0 gusting 6 12.2
2020-Jul-09 05:50 246 0 gusting 6 11.7
2020-Jul-09 05:45 239 1 gusting 6 11.7
2020-Jul-09 05:40 242 2 gusting 6 11.7
2020-Jul-09 05:31 261 0 gusting 4 11.1
2020-Jul-09 05:25 261 0 gusting 4 11.1
2020-Jul-09 05:20 250 0 gusting 3 11.1
2020-Jul-09 05:17 244 0 gusting 3 11.1
2020-Jul-09 05:10 250 0 gusting 3 10.6
2020-Jul-09 05:05 250 0 gusting 4 10.6
2020-Jul-09 05:01 250 0 gusting 4 10.6
2020-Jul-09 04:55 249 0 gusting 4 10.0
2020-Jul-09 04:50 246 0 gusting 4 10.0
2020-Jul-09 04:46 246 10.0
2020-Jul-09 04:41 242 0 gusting 3 10.0
2020-Jul-09 04:35 246 9.4
2020-Jul-09 04:31 243 9.4
2020-Jul-09 04:25 220 9.4
2020-Jul-09 04:20 218 9.4
2020-Jul-09 04:16 215 9.4
2020-Jul-09 04:10 215 9.4
2020-Jul-09 04:05 213 9.4
2020-Jul-09 04:01 213 9.4